EW0349 Weather Reports


time (UTC)temp
C
wind
direction
speed
KPH
gust
KPH
rain 1hr
cm
rain 24hr
cm
rain mn
cm
humidity
%
barometer
mb
20260507163053 13 38 0.0 6.4 0.00 0.00 0.00 65 1020.1
20260507161601 12 65 1.6 6.4 0.00 0.00 0.00 64 1020.2
20260507160048 12 55 1.6 9.7 0.00 0.00 0.00 64 1020.3
20260507154545 12 32 0.0 6.4 0.00 0.00 0.00 64 1020.4
20260507153057 11 32 1.6 6.4 0.00 0.00 0.00 64 1020.4
20260507151541 11 49 0.0 4.8 0.00 0.00 0.00 63 1020.4
20260507150046 11 64 0.0 4.8 0.00 0.00 0.00 63 1020.4
20260507144539 11 304 0.0 4.8 0.00 0.00 0.00 62 1020.4
20260507143035 11 303 0.0 4.8 0.00 0.00 0.00 62 1020.3
20260507141534 11 243 0.0 3.2 0.00 0.00 0.00 59 1020.2
20260507140034 10 249 0.0 0.0 0.00 0.00 0.00 59 1020.0
20260507134532 10 249 0.0 3.2 0.00 0.00 0.00 58 1020.0
20260507133032 10 249 0.0 1.6 0.00 0.00 0.00 58 1020.0
20260507131533 10 249 0.0 3.2 0.00 0.00 0.00 58 1020.0
20260507130052 10 275 0.0 1.6 0.00 0.00 0.00 54 1020.2
20260507124529 10 275 0.0 1.6 0.00 0.00 0.00 49 1020.1
20260507123029 10 275 0.0 0.0 0.00 0.00 0.00 47 1020.1
20260507121527 10 275 0.0 0.0 0.00 0.00 0.00 48 1020.2
20260507120034 11 275 0.0 0.0 0.00 0.00 0.00 49 1020.4
20260507114524 10 275 0.0 3.2 0.00 0.00 0.00 50 1020.4
20260507113023 10 275 0.0 0.0 0.00 0.00 0.00 50 1020.5
20260507111521 11 275 0.0 0.0 0.00 0.00 0.00 52 1020.6
20260507110024 11 275 0.0 1.6 0.00 0.00 0.00 54 1020.6
20260507104519 11 275 0.0 3.2 0.00 0.00 0.00 55 1020.6
20260507103020 11 275 0.0 1.6 0.00 0.00 0.00 54 1020.7
20260507101518 11 275 0.0 3.2 0.00 0.00 0.00 55 1020.8
20260507100021 11 274 0.0 1.6 0.00 0.00 0.00 55 1020.9
20260507094512 11 274 0.0 3.2 0.00 0.00 0.00 55 1020.9
20260507093011 11 274 0.0 4.8 0.00 0.00 0.00 56 1021.1
20260507091509 11 273 0.0 0.0 0.00 0.00 0.00 55 1021.2
20260507090008 11 273 0.0 3.2 0.00 0.00 0.00 57 1021.3
20260507084507 11 273 0.0 3.2 0.00 0.00 0.00 56 1021.4
20260507083007 11 273 0.0 3.2 0.00 0.00 0.00 57 1021.2
20260507081505 10 273 0.0 3.2 0.00 0.00 0.00 57 1021.3
20260507080004 10 290 0.0 4.8 0.00 0.00 0.00 58 1021.3
20260507074505 10 283 0.0 4.8 0.00 0.00 0.00 58 1021.3
20260507073002 10 280 1.6 6.4 0.00 0.00 0.00 58 1021.4
20260507071600 10 271 0.0 4.8 0.00 0.00 0.00 58 1021.3
20260507071501 10 271 0.0 4.8 0.00 0.00 0.00 58 1021.3
20260507064554 10 271 0.0 4.8 0.00 0.00 0.00 59 1021.2
20260507063051 10 273 0.0 9.7 0.00 0.00 0.00 59 1021.2
20260507061545 10 278 0.0 6.4 0.00 0.00 0.00 58 1021.2
20260507060040 10 5 0.0 4.8 0.00 0.00 0.00 58 1021.3
20260507054541 10 312 0.0 9.7 0.00 0.00 0.00 60 1021.1
20260507053032 10 162 0.0 4.8 0.00 0.00 0.00 58 1021.2
20260507051527 10 83 0.0 3.2 0.00 0.00 0.00 59 1021.3
20260507050032 10 118 0.0 6.4 0.00 0.00 0.00 60 1021.2
20260507044523 11 211 0.0 4.8 0.00 0.00 0.00 61 1021.2
20260507043014 11 211 0.0 4.8 0.00 0.00 0.00 62 1021.0
20260507041523 11 271 1.6 9.7 0.00 0.00 0.00 64 1020.9
20260507040006 11 254 0.0 4.8 0.00 0.00 0.00 65 1020.6
20260507034501 12 252 1.6 6.4 0.00 0.00 0.00 67 1020.5
20260507033057 12 311 0.0 8.0 0.00 0.00 0.00 69 1020.2
20260507031553 13 290 0.0 4.8 0.00 0.00 0.00 69 1020.1
20260507030048 13 299 0.0 4.8 0.00 0.00 0.00 69 1019.9
20260507024556 14 286 0.0 11.3 0.00 0.00 0.00 69 1019.8
20260507023042 15 301 1.6 8.0 0.00 0.00 0.00 69 1019.8
20260507021536 16 277 1.6 9.7 0.00 0.00 0.00 67 1019.8
20260507020036 16 346 1.6 8.0 0.00 0.00 0.00 65 1019.8
20260507014539 17 74 0.0 8.0 0.00 0.00 0.00 65 1019.8
20260507013026 17 285 3.2 9.7 0.00 0.00 0.00 64 1019.8
20260507011520 18 296 1.6 9.7 0.00 0.00 0.00 63 1019.8
20260507010014 18 311 4.8 12.9 0.00 0.00 0.00 63 1019.8
20260507004525 18 296 1.6 8.0 0.00 0.00 0.00 63 1019.7
20260507003005 19 295 3.2 11.3 0.00 0.00 0.00 61 1019.7
20260507001501 19 312 3.2 9.7 0.00 0.00 0.00 61 1019.6
20260507000057 20 289 4.8 11.3 0.00 0.00 0.00 60 1019.5
20260506234600 20 300 3.2 9.7 0.00 0.00 0.00 60 1019.4
20260506233047 21 300 3.2 9.7 0.00 0.00 0.00 58 1019.4
20260506231551 21 322 1.6 6.4 0.00 0.00 0.00 58 1019.4
20260506230052 20 230 1.6 12.9 0.00 0.00 0.00 59 1019.5
20260506224535 20 332 0.0 4.8 0.00 0.00 0.00 61 1019.6
20260506223044 20 263 0.0 6.4 0.00 0.00 0.00 58 1019.7
20260506221525 19 182 1.6 8.0 0.00 0.00 0.00 60 1019.9
20260506220024 20 182 3.2 9.7 0.00 0.00 0.00 59 1020.1
20260506214517 19 316 1.6 9.7 0.00 0.00 0.00 60 1019.9
20260506213014 18 218 1.6 6.4 0.00 0.00 0.00 61 1020.1
20260506211632 18 258 1.6 9.7 0.00 0.00 0.00 60 1020.1
20260506210002 17 55 0.0 6.4 0.00 0.00 0.00 64 1020.4
20260506204600 17 315 1.6 8.0 0.00 0.00 0.00 62 1020.5
20260506203054 17 306 1.6 11.3 0.00 0.00 0.00 63 1020.7
20260506201559 17 288 1.6 6.4 0.00 0.00 0.00 63 1020.6
20260506200044 17 215 1.6 8.0 0.00 0.00 0.00 62 1020.6
20260506194554 16 167 4.8 11.3 0.00 0.00 0.00 62 1020.7
20260506193039 16 287 1.6 9.7 0.00 0.00 0.00 62 1020.6
20260506191538 15 281 1.6 9.7 0.00 0.00 0.00 61 1020.8
20260506190026 15 205 1.6 9.7 0.00 0.00 0.00 60 1021.1
20260506184522 15 192 1.6 8.0 0.00 0.00 0.00 58 1021.0
20260506183028 13 169 0.0 8.0 0.00 0.00 0.00 53 1021.1
20260506181513 13 177 1.6 8.0 0.00 0.00 0.00 50 1020.9
20260506180012 13 183 1.6 4.8 0.00 0.00 0.00 49 1020.9
20260506174510 12 217 0.0 4.8 0.00 0.00 0.00 47 1021.1
20260506173109 12 217 1.6 6.4 0.00 0.00 0.00 46 1021.2
20260506171556 12 187 0.0 6.4 0.00 0.00 0.00 43 1020.9
20260506170109 12 209 0.0 4.8 0.00 0.00 0.00 40 1021.0
20260506164548 11 209 0.0 6.4 0.00 0.00 0.00 34 1021.0